Mountain Home, AR

10:18 PM CDT on September 18, 2019 (GMT -0500)
Baxter County Regional

Weather History for KBPK - August, 2019

Change the Weather History Date:

Friday, August 23, 2019

  Actual Average (KFLP) Record (KFLP)
Temperature  
Mean Temperature 72 °F -  
Max Temperature 75 °F 88 °F 100 °F (2014)
Min Temperature 70 °F 65 °F 61 °F (2018)
Cooling Degree Days 8    
Growing Degree Days 22 (Base 50)    
Moisture  
Dew Point 71 °F    
Average Humidity 94    
Maximum Humidity 100    
Minimum Humidity 82    
Precipitation  
Precipitation 0.05 in - - ()
Sea Level Pressure  
Sea Level Pressure 30.00 in    
Wind  
Wind Speed 2 mph (SSE)    
Max Wind Speed 7 mph    
Max Gust Speed -    
Visibility 10 miles    
Events Rain    
Averages and records for this station are not official NWS values.
T = Trace of Precipitation, MM = Missing Value Source: NWS Daily Summary

Daily Weather History Graph

Daily Weather History Graph

Search for Another Location

Airport or City:

Astronomy

Aug. 23, 2019 Rise Set
Actual Time 6:34 AM CDT 7:50 PM CDT
Civil Twilight 6:07 AM CDT 8:17 PM CDT
Nautical Twilight 5:35 AM CDT 8:49 PM CDT
Astronomical Twilight 5:01 AM CDT 9:22 PM CDT
Moon No Moon Rise 1:58 PM CDT (8/23)
Length of Visible Light 14h 10m
Length of Day
13h 16m
Waning Gibbous, 49% of the Moon is Illuminated
Aug 23
Waning Gibbous
Aug 30
New
Sep 5
First Quarter
Sep 13
Full
Sep 21
Last Quarter

Hourly Weather History & Observations

Time (CDT) Temp. Dew Point Humidity Pressure Visibility Wind Dir Wind Speed Gust Speed Precip Events Conditions
12:53 AM 73.0 °F 73.0 °F 100% 29.95 in 10.0 mi Calm Calm - 0.00 in   Mostly Cloudy
1:53 AM 73.0 °F 73.0 °F 100% 29.94 in 8.0 mi Calm Calm - N/A   Mostly Cloudy
2:27 AM 73.0 °F 73.0 °F 100% 29.98 in 6.0 mi Calm Calm - N/A   Overcast
2:53 AM 73.0 °F 73.0 °F 100% 29.97 in 10.0 mi West 4.6 mph - N/A   Overcast
3:07 AM 73.0 °F 73.0 °F 100% 30.00 in 8.0 mi Variable 3.5 mph - N/A   Overcast
3:53 AM 73.0 °F 72.0 °F 96% 29.96 in 10.0 mi Calm Calm - N/A   Overcast
4:53 AM 71.1 °F 70.0 °F 96% 29.96 in 10.0 mi Calm Calm - N/A   Scattered Clouds
5:27 AM 71.1 °F 70.0 °F 96% 30.01 in 10.0 mi Calm Calm - N/A   Mostly Cloudy
5:53 AM 70.0 °F 70.0 °F 100% 29.99 in 10.0 mi Calm Calm - N/A   Partly Cloudy
6:53 AM 70.0 °F 69.1 °F 97% 29.99 in 10.0 mi Calm Calm - N/A   Scattered Clouds
8:53 AM 73.0 °F 70.0 °F 90% 29.99 in 10.0 mi Calm Calm - N/A   Partly Cloudy
9:53 AM 73.9 °F 70.0 °F 87% 30.01 in 10.0 mi Calm Calm - N/A   Mostly Cloudy
10:53 AM 73.9 °F 70.0 °F 87% 30.03 in 10.0 mi East 3.5 mph - N/A   Overcast
11:53 AM 73.9 °F 71.1 °F 91% 30.04 in 10.0 mi SW 4.6 mph - 0.00 in   Overcast
12:53 PM 73.9 °F 72.0 °F 93% 30.03 in 10.0 mi SSW 3.5 mph - 0.01 in Rain Light Rain
1:10 PM 73.0 °F 72.0 °F 96% 30.06 in 10.0 mi SW 5.8 mph - 0.00 in Rain Light Rain
1:36 PM 73.0 °F 72.0 °F 96% 30.06 in 10.0 mi SW 5.8 mph - 0.00 in Rain Light Rain
1:53 PM 73.0 °F 72.0 °F 96% 30.02 in 10.0 mi South 3.5 mph - 0.01 in Rain Light Rain
2:53 PM 75.0 °F 72.0 °F 90% 30.01 in 10.0 mi South 4.6 mph - 0.00 in   Scattered Clouds
4:53 PM 75.9 °F 70.0 °F 82% 29.98 in 10.0 mi East 3.5 mph - N/A   Scattered Clouds
5:53 PM 75.9 °F 70.0 °F 82% 29.99 in 10.0 mi Calm Calm - N/A   Mostly Cloudy
6:53 PM 75.9 °F 71.1 °F 85% 29.98 in 10.0 mi Calm Calm - N/A   Overcast
7:53 PM 73.9 °F 72.0 °F 93% 29.99 in 10.0 mi East 3.5 mph - N/A   Partly Cloudy
8:53 PM 73.9 °F 72.0 °F 93% 30.01 in 10.0 mi Calm Calm - N/A   Overcast
9:53 PM 73.9 °F 72.0 °F 93% 30.01 in 10.0 mi Calm Calm - 0.01 in   Mostly Cloudy
10:53 PM 73.0 °F 72.0 °F 96% 30.02 in 10.0 mi ESE 5.8 mph - 0.01 in Rain Light Rain
11:21 PM 73.0 °F 72.0 °F 96% 30.04 in 10.0 mi East 4.6 mph - 0.01 in   Overcast
11:53 PM 72.0 °F 71.1 °F 97% 30.02 in 10.0 mi East 6.9 mph - 0.01 in   Overcast